Location: Sungai Jaoh
(2.9167°N, 113.9167°E)
Time: 06:34:59
(UTC+00:00)

FENGYUN 1C DEB - Visible Passes

Search period start: 26 October 2021 00:00
Search period end: 05 November 2021 00:00
Orbit: 826 x 1046 km, 98.3° (Epoch: 24 October)

Date Brightness Start Highest point End Pass type
(mag) Time Alt. Az. Time Alt. Az. Time Alt. Az.
26 Oct ? 19:15:12 10° SE 19:19:49 22° ENE 19:20:27 22° ENE visible
26 Oct ? 20:56:44 10° SSW 21:02:02 30° WSW 21:04:16 24° WNW visible
27 Oct ? 19:27:44 10° SE 19:33:03 31° ENE 19:33:46 30° ENE visible
27 Oct ? 21:10:43 10° SSW 21:15:14 21° WSW 21:17:34 17° WNW visible
28 Oct ? 19:40:31 10° SSE 19:46:17 43° ENE 19:47:04 41° ENE visible
28 Oct ? 21:25:08 10° SW 21:28:24 15° WSW 21:30:52 12° WNW visible
29 Oct ? 19:53:29 10° SSE 19:59:31 61° ENE 20:00:22 55° NE visible
30 Oct ? 20:06:37 10° SSE 20:12:44 85° ENE 20:13:41 65° N visible
31 Oct ? 20:19:53 10° S 20:25:56 70° WSW 20:27:00 57° NW visible
01 Nov ? 18:54:40 10° E 18:56:29 12° E 18:56:29 12° E visible
01 Nov ? 20:33:19 10° S 20:39:08 49° WSW 20:40:18 43° WNW visible
02 Nov ? 19:06:15 10° ESE 19:09:48 18° E 19:09:48 18° E visible
02 Nov ? 20:46:57 10° SSW 20:52:19 35° WSW 20:53:37 31° WNW visible
03 Nov ? 19:18:32 10° SE 19:23:07 25° E 19:23:07 25° E visible
03 Nov ? 21:00:46 10° SSW 21:05:30 25° WSW 21:06:55 22° W visible
04 Nov ? 19:31:10 10° SE 19:36:25 35° E 19:36:25 35° E visible
04 Nov ? 21:14:57 10° SW 21:18:40 17° WSW 21:20:14 16° W visible
